owner,sensor,date,latitude,longitude,vertical_datum,direction_of_sea_water_velocity,sea_water_speed,upward_sea_water_velocity,qcFlag 
TABS,ioos:station:wmo:42050:1,2011-07-01T00:00:00Z,28.8425,-94.2433,2.0,359.5047416,12.72047562,-99999.0,'11111222,11144222,99999999' 
TABS,ioos:station:wmo:42050:1,2011-07-01T00:30:00Z,28.8425,-94.2433,2.0,349.470627,13.68036915,-99999.0,'11111222,11111222,99999999' 
TABS,ioos:station:wmo:42050:1,2011-07-01T01:00:00Z,28.8425,-94.2433,2.0,357.3055601,18.0799917,-99999.0,'11111222,11111222,99999999' 
TABS,ioos:station:wmo:42050:1,2011-07-01T01:30:00Z,28.8425,-94.2433,2.0,354.0038513,23.73989259,-99999.0,'11111222,11111222,99999999' 
TABS,ioos:station:wmo:42050:1,2011-07-01T02:00:00Z,28.8425,-94.2433,2.0,353.52315,25.88522358,-99999.0,'11111222,11111222,99999999' 
TABS,ioos:station:wmo:42050:1,2011-07-01T02:30:00Z,28.8425,-94.2433,2.0,358.0446432,25.4948485,-99999.0,'11111222,11111222,99999999' 
TABS,ioos:station:wmo:42050:1,2011-07-01T03:00:00Z,28.8425,-94.2433,2.0,0.208419684,30.27019987,-99999.0,'11111222,11111222,99999999' 
TABS,ioos:station:wmo:42050:1,2011-07-01T03:30:00Z,28.8425,-94.2433,2.0,5.024273969,32.88634975,-99999.0,'11111222,11111222,99999999' 
TABS,ioos:station:wmo:42050:1,2011-07-01T04:00:00Z,28.8425,-94.2433,2.0,8.633047607,36.90815222,-99999.0,'11111222,11111222,99999999' 
TABS,ioos:station:wmo:42050:1,2011-07-01T04:30:00Z,28.8425,-94.2433,2.0,8.029775228,40.30514855,-99999.0,'11111222,11111222,99999999' 
TABS,ioos:station:wmo:42050:1,2011-07-01T05:00:00Z,28.8425,-94.2433,2.0,7.883766834,40.09898253,-99999.0,'11111222,11111222,99999999' 
TABS,ioos:station:wmo:42050:1,2011-07-01T05:30:00Z,28.8425,-94.2433,2.0,8.456559115,39.98470833,-99999.0,'11111222,11111222,99999999' 
TABS,ioos:station:wmo:42050:1,2011-07-01T06:00:00Z,28.8425,-94.2433,2.0,12.70074531,40.16268542,-99999.0,'11111222,11111222,99999999' 
TABS,ioos:station:wmo:42050:1,2011-07-01T06:30:00Z,28.8425,-94.2433,2.0,11.78991179,59.95480464,-99999.0,'11111222,11111222,99999999' 
TABS,ioos:station:wmo:42050:1,2011-07-01T07:00:00Z,28.8425,-94.2433,2.0,15.30731737,57.95601781,-99999.0,'11111222,11111222,99999999' 
TABS,ioos:station:wmo:42050:1,2011-07-01T07:30:00Z,28.8425,-94.2433,2.0,19.24400161,57.34413309,-99999.0,'11111222,11111222,99999999' 
TABS,ioos:station:wmo:42050:1,2011-07-01T08:00:00Z,28.8425,-94.2433,2.0,22.4658635,57.17943774,-99999.0,'11111222,11111222,99999999' 
TABS,ioos:station:wmo:42050:1,2011-07-01T08:30:00Z,28.8425,-94.2433,2.0,24.64172265,51.82995466,-99999.0,'11111222,11111222,99999999' 
TABS,ioos:station:wmo:42050:1,2011-07-01T09:00:00Z,28.8425,-94.2433,2.0,30.36977356,50.27922832,-99999.0,'11111222,11111222,99999999' 
TABS,ioos:station:wmo:42050:1,2011-07-01T09:30:00Z,28.8425,-94.2433,2.0,31.79614742,46.99213977,-99999.0,'11111222,11111222,99999999' 
TABS,ioos:station:wmo:42050:1,2011-07-01T10:00:00Z,28.8425,-94.2433,2.0,35.73786551,42.61431919,-99999.0,'11111222,11111222,99999999' 
TABS,ioos:station:wmo:42050:1,2011-07-01T10:30:00Z,28.8425,-94.2433,2.0,38.20680281,39.69280287,-99999.0,'11111222,11111222,99999999' 
TABS,ioos:station:wmo:42050:1,2011-07-01T11:00:00Z,28.8425,-94.2433,2.0,43.79105199,36.8626125,-99999.0,'11111222,11111222,99999999' 
TABS,ioos:station:wmo:42050:1,2011-07-01T11:30:00Z,28.8425,-94.2433,2.0,46.10344052,33.41699119,-99999.0,'11111222,11111222,99999999' 
TABS,ioos:station:wmo:42050:1,2011-07-01T12:00:00Z,28.8425,-94.2433,2.0,58.29568383,29.05600282,-99999.0,'11111222,11111222,99999999' 
TABS,ioos:station:wmo:42050:1,2011-07-01T12:30:00Z,28.8425,-94.2433,2.0,56.8112985,26.94559333,-99999.0,'11111222,11111222,99999999' 
TABS,ioos:station:wmo:42050:1,2011-07-01T13:00:00Z,28.8425,-94.2433,2.0,64.62257836,25.24615812,-99999.0,'11111222,11111222,99999999' 
TABS,ioos:station:wmo:42050:1,2011-07-01T13:30:00Z,28.8425,-94.2433,2.0,71.20338416,25.04573816,-99999.0,'11111222,11111222,99999999' 
TABS,ioos:station:wmo:42050:1,2011-07-01T14:00:00Z,28.8425,-94.2433,2.0,71.83789352,24.57433824,-99999.0,'11111222,11111222,99999999' 
TABS,ioos:station:wmo:42050:1,2011-07-01T14:30:00Z,28.8425,-94.2433,2.0,67.11941633,23.66178353,-99999.0,'11111222,11111222,99999999' 
TABS,ioos:station:wmo:42050:1,2011-07-01T15:00:00Z,28.8425,-94.2433,2.0,70.4936049,25.36590231,-99999.0,'11111222,11111222,99999999' 
TABS,ioos:station:wmo:42050:1,2011-07-01T15:30:00Z,28.8425,-94.2433,2.0,73.2016675,22.69860128,-99999.0,'11111222,11111222,99999999' 
TABS,ioos:station:wmo:42050:1,2011-07-01T16:00:00Z,28.8425,-94.2433,2.0,69.55175339,21.78256642,-99999.0,'11111222,11111222,99999999' 
TABS,ioos:station:wmo:42050:1,2011-07-01T16:30:00Z,28.8425,-94.2433,2.0,72.35586824,20.85088248,-99999.0,'11111222,11111222,99999999' 
TABS,ioos:station:wmo:42050:1,2011-07-01T17:00:00Z,28.8425,-94.2433,2.0,73.52315714,19.25053765,-99999.0,'11111222,11111222,99999999' 
TABS,ioos:station:wmo:42050:1,2011-07-01T17:30:00Z,28.8425,-94.2433,2.0,79.09900646,16.76247297,-99999.0,'11111222,11111222,99999999' 
TABS,ioos:station:wmo:42050:1,2011-07-01T18:00:00Z,28.8425,-94.2433,2.0,79.61400048,13.25721313,-99999.0,'11111222,11111222,99999999' 
TABS,ioos:station:wmo:42050:1,2011-07-01T18:30:00Z,28.8425,-94.2433,2.0,74.69579239,12.27530855,-99999.0,'11111222,11111222,99999999' 
TABS,ioos:station:wmo:42050:1,2011-07-01T19:00:00Z,28.8425,-94.2433,2.0,44.86182156,8.789362889,-99999.0,'11133222,11111222,99999999' 
TABS,ioos:station:wmo:42050:1,2011-07-01T19:30:00Z,28.8425,-94.2433,2.0,37.24345191,8.592182493,-99999.0,'11133222,11111222,99999999' 
TABS,ioos:station:wmo:42050:1,2011-07-01T20:00:00Z,28.8425,-94.2433,2.0,20.10402807,6.080476955,-99999.0,'11133222,11111222,99999999' 
TABS,ioos:station:wmo:42050:1,2011-07-01T20:30:00Z,28.8425,-94.2433,2.0,3.953078497,7.688289797,-99999.0,'11133222,11111222,99999999' 
TABS,ioos:station:wmo:42050:1,2011-07-01T21:00:00Z,28.8425,-94.2433,2.0,352.4002004,7.031770758,-99999.0,'11133222,11111222,99999999' 
TABS,ioos:station:wmo:42050:1,2011-07-01T21:30:00Z,28.8425,-94.2433,2.0,355.4423858,9.941438528,-99999.0,'11133222,11111222,99999999' 
TABS,ioos:station:wmo:42050:1,2011-07-01T22:00:00Z,28.8425,-94.2433,2.0,20.00501846,9.003221646,-99999.0,'11133222,11111222,99999999' 
TABS,ioos:station:wmo:42050:1,2011-07-01T22:30:00Z,28.8425,-94.2433,2.0,6.024189454,10.00524862,-99999.0,'11111222,11111222,99999999' 
TABS,ioos:station:wmo:42050:1,2011-07-01T23:00:00Z,28.8425,-94.2433,2.0,11.00372558,11.00227249,-99999.0,'11111222,11111222,99999999' 
TABS,ioos:station:wmo:42050:1,2011-07-01T23:30:00Z,28.8425,-94.2433,2.0,15.02078551,12.00000833,-99999.0,'11111222,11111222,99999999' 
TABS,ioos:station:wmo:42050:1,2011-07-02T00:00:00Z,28.8425,-94.2433,2.0,47.98577541,10.99629483,-99999.0,'11111222,11111222,99999999' 
TABS,ioos:station:wmo:42050:1,2011-07-02T00:30:00Z,28.8425,-94.2433,2.0,5.021659759,11.99604101,-99999.0,'11111222,11111222,99999999' 
TABS,ioos:station:wmo:42050:1,2011-07-02T01:00:00Z,28.8425,-94.2433,2.0,8.984272929,12.99948076,-99999.0,'11111222,11111222,99999999' 
TABS,ioos:station:wmo:42050:1,2011-07-02T01:30:00Z,28.8425,-94.2433,2.0,10.98549874,17.99982778,-99999.0,'11111222,11111222,99999999' 
TABS,ioos:station:wmo:42050:1,2011-07-02T02:00:00Z,28.8425,-94.2433,2.0,15.0159647,20.99695216,-99999.0,'11111222,11111222,99999999' 
TABS,ioos:station:wmo:42050:1,2011-07-02T02:30:00Z,28.8425,-94.2433,2.0,13.98809075,23.00208686,-99999.0,'11111222,11111222,99999999' 
TABS,ioos:station:wmo:42050:1,2011-07-02T03:00:00Z,28.8425,-94.2433,2.0,16.99919116,25.99576119,-99999.0,'11111222,11111222,99999999' 
TABS,ioos:station:wmo:42050:1,2011-07-02T03:30:00Z,28.8425,-94.2433,2.0,20.00774586,27.99986607,-99999.0,'11111222,11111222,99999999' 
TABS,ioos:station:wmo:42050:1,2011-07-02T04:00:00Z,28.8425,-94.2433,2.0,74.99091034,18.99812886,-99999.0,'11111222,11111222,99999999' 
TABS,ioos:station:wmo:42050:1,2011-07-02T04:30:00Z,28.8425,-94.2433,2.0,31.09772258,28.63519687,-99999.0,'11111222,11111222,99999999' 
TABS,ioos:station:wmo:42050:1,2011-07-02T05:00:00Z,28.8425,-94.2433,2.0,29.41474014,31.84520686,-99999.0,'11111222,11111222,99999999' 
TABS,ioos:station:wmo:42050:1,2011-07-02T05:30:00Z,28.8425,-94.2433,2.0,31.61783465,29.4516553,-99999.0,'11111222,11111222,99999999' 
TABS,ioos:station:wmo:42050:1,2011-07-02T06:00:00Z,28.8425,-94.2433,2.0,31.04170382,31.57120365,-99999.0,'11111222,11111222,99999999' 
TABS,ioos:station:wmo:42050:1,2011-07-02T06:30:00Z,28.8425,-94.2433,2.0,29.42958389,32.21727021,-99999.0,'11111222,11111222,99999999' 
TABS,ioos:station:wmo:42050:1,2011-07-02T07:00:00Z,28.8425,-94.2433,2.0,32.6809821,31.02087362,-99999.0,'11111222,11111222,99999999' 
TABS,ioos:station:wmo:42050:1,2011-07-02T07:30:00Z,28.8425,-94.2433,2.0,49.29153484,35.34128747,-99999.0,'11111222,11111222,99999999' 
TABS,ioos:station:wmo:42050:1,2011-07-02T08:00:00Z,28.8425,-94.2433,2.0,51.0123624,32.4721804,-99999.0,'11111222,11111222,99999999' 
TABS,ioos:station:wmo:42050:1,2011-07-02T08:30:00Z,28.8425,-94.2433,2.0,59.81711023,28.06491938,-99999.0,'11111222,11111222,99999999' 
TABS,ioos:station:wmo:42050:1,2011-07-02T09:00:00Z,28.8425,-94.2433,2.0,64.39012919,30.58471514,-99999.0,'11111222,11111222,99999999' 
TABS,ioos:station:wmo:42050:1,2011-07-02T09:30:00Z,28.8425,-94.2433,2.0,82.1425887,28.52783903,-99999.0,'11111222,11111222,99999999' 
TABS,ioos:station:wmo:42050:1,2011-07-02T10:00:00Z,28.8425,-94.2433,2.0,87.39142311,25.92686637,-99999.0,'11111222,11111222,99999999' 
TABS,ioos:station:wmo:42050:1,2011-07-02T10:30:00Z,28.8425,-94.2433,2.0,106.6383293,28.84782834,-99999.0,'11111222,11111222,99999999' 
TABS,ioos:station:wmo:42050:1,2011-07-02T11:00:00Z,28.8425,-94.2433,2.0,108.500072,25.02311931,-99999.0,'11111222,11111222,99999999' 
TABS,ioos:station:wmo:42050:1,2011-07-02T11:30:00Z,28.8425,-94.2433,2.0,111.3225867,27.55629329,-99999.0,'11111222,11111222,99999999' 
TABS,ioos:station:wmo:42050:1,2011-07-02T12:00:00Z,28.8425,-94.2433,2.0,123.5486397,25.85742833,-99999.0,'11111222,11111222,99999999' 
TABS,ioos:station:wmo:42050:1,2011-07-02T12:30:00Z,28.8425,-94.2433,2.0,128.9863494,27.94306354,-99999.0,'11111222,11111222,99999999' 
TABS,ioos:station:wmo:42050:1,2011-07-02T13:00:00Z,28.8425,-94.2433,2.0,131.635213,26.86687366,-99999.0,'11111222,11111222,99999999' 
TABS,ioos:station:wmo:42050:1,2011-07-02T13:30:00Z,28.8425,-94.2433,2.0,141.8969641,28.44058544,-99999.0,'11111222,11111222,99999999' 
TABS,ioos:station:wmo:42050:1,2011-07-02T14:00:00Z,28.8425,-94.2433,2.0,153.8598639,25.92121332,-99999.0,'11111222,11111222,99999999' 
TABS,ioos:station:wmo:42050:1,2011-07-02T14:30:00Z,28.8425,-94.2433,2.0,155.8432214,22.77434522,-99999.0,'11111222,11111222,99999999' 
TABS,ioos:station:wmo:42050:1,2011-07-02T15:00:00Z,28.8425,-94.2433,2.0,162.7554871,19.63249602,-99999.0,'11111222,11111222,99999999' 
TABS,ioos:station:wmo:42050:1,2011-07-02T15:30:00Z,28.8425,-94.2433,2.0,153.0040143,19.62875951,-99999.0,'11111222,11111222,99999999' 
TABS,ioos:station:wmo:42050:1,2011-07-02T16:00:00Z,28.8425,-94.2433,2.0,154.4757489,20.67809711,-99999.0,'11111222,11111222,99999999' 
TABS,ioos:station:wmo:42050:1,2011-07-02T16:30:00Z,28.8425,-94.2433,2.0,160.4732182,19.08781025,-99999.0,'11111222,11111222,99999999' 
TABS,ioos:station:wmo:42050:1,2011-07-02T17:00:00Z,28.8425,-94.2433,2.0,147.4332743,17.96464584,-99999.0,'11111222,11111222,99999999' 
TABS,ioos:station:wmo:42050:1,2011-07-02T17:30:00Z,28.8425,-94.2433,2.0,140.0046772,17.02131605,-99999.0,'11111222,11111222,99999999' 
TABS,ioos:station:wmo:42050:1,2011-07-02T18:00:00Z,28.8425,-94.2433,2.0,141.5759936,15.92985876,-99999.0,'11111222,11111222,99999999' 
TABS,ioos:station:wmo:42050:1,2011-07-02T18:30:00Z,28.8425,-94.2433,2.0,146.9283988,14.12903748,-99999.0,'11111222,11111222,99999999' 
TABS,ioos:station:wmo:42050:1,2011-07-02T19:00:00Z,28.8425,-94.2433,2.0,132.8659989,14.05288582,-99999.0,'11111222,11111222,99999999' 
TABS,ioos:station:wmo:42050:1,2011-07-02T19:30:00Z,28.8425,-94.2433,2.0,143.3708892,13.79412194,-99999.0,'11111222,11111222,99999999' 
TABS,ioos:station:wmo:42050:1,2011-07-02T20:00:00Z,28.8425,-94.2433,2.0,162.8195273,13.57575044,-99999.0,'11111222,11111222,99999999' 
TABS,ioos:station:wmo:42050:1,2011-07-02T20:30:00Z,28.8425,-94.2433,2.0,159.0002886,13.00366102,-99999.0,'11111222,11111222,99999999' 
TABS,ioos:station:wmo:42050:1,2011-07-02T21:00:00Z,28.8425,-94.2433,2.0,157.9937754,12.99689963,-99999.0,'11111222,11111222,99999999' 
TABS,ioos:station:wmo:42050:1,2011-07-02T21:30:00Z,28.8425,-94.2433,2.0,166.9944649,11.99775396,-99999.0,'11111222,11111222,99999999' 
TABS,ioos:station:wmo:42050:1,2011-07-02T22:00:00Z,28.8425,-94.2433,2.0,179.9997895,13.0,-99999.0,'11111222,11111222,99999999' 
TABS,ioos:station:wmo:42050:1,2011-07-02T22:30:00Z,28.8425,-94.2433,2.0,177.0106716,13.9990464,-99999.0,'11111222,11111222,99999999' 
TABS,ioos:station:wmo:42050:1,2011-07-02T23:00:00Z,28.8425,-94.2433,2.0,185.9812799,11.99530742,-99999.0,'11111222,11111222,99999999' 
TABS,ioos:station:wmo:42050:1,2011-07-02T23:30:00Z,28.8425,-94.2433,2.0,186.0006026,11.00027727,-99999.0,'11111222,11111222,99999999' 
TABS,ioos:station:wmo:42050:1,2011-07-03T00:00:00Z,28.8425,-94.2433,2.0,179.9997895,5.0,-99999.0,'11133222,11111222,99999999' 
TABS,ioos:station:wmo:42050:1,2011-07-03T00:30:00Z,28.8425,-94.2433,2.0,179.9997895,6.0,-99999.0,'11133222,11111222,99999999' 
TABS,ioos:station:wmo:42050:1,2011-07-03T01:00:00Z,28.8425,-94.2433,2.0,117.0776881,1.999124809,-99999.0,'11133222,11111222,99999999' 
TABS,ioos:station:wmo:42050:1,2011-07-03T01:30:00Z,28.8425,-94.2433,2.0,179.9997895,2.0,-99999.0,'11133222,11111222,99999999' 
TABS,ioos:station:wmo:42050:1,2011-07-03T02:00:00Z,28.8425,-94.2433,2.0,0.000210459,2.0,-99999.0,'11133222,11111222,99999999' 
TABS,ioos:station:wmo:42050:1,2011-07-03T02:30:00Z,28.8425,-94.2433,2.0,51.62558324,5.331838332,-99999.0,'11133222,11111222,99999999' 
TABS,ioos:station:wmo:42050:1,2011-07-03T03:00:00Z,28.8425,-94.2433,2.0,28.23459526,9.364155061,-99999.0,'11133222,11111222,99999999' 
TABS,ioos:station:wmo:42050:1,2011-07-03T03:30:00Z,28.8425,-94.2433,2.0,39.71682364,9.906225315,-99999.0,'11133222,11111222,99999999' 
TABS,ioos:station:wmo:42050:1,2011-07-03T04:00:00Z,28.8425,-94.2433,2.0,32.34036557,13.42192237,-99999.0,'11111222,11111222,99999999' 
TABS,ioos:station:wmo:42050:1,2011-07-03T04:30:00Z,28.8425,-94.2433,2.0,36.44456699,16.96846782,-99999.0,'11111222,11111222,99999999' 
TABS,ioos:station:wmo:42050:1,2011-07-03T05:00:00Z,28.8425,-94.2433,2.0,35.55930676,21.68367358,-99999.0,'11111222,11111222,99999999' 
TABS,ioos:station:wmo:42050:1,2011-07-03T05:30:00Z,28.8425,-94.2433,2.0,35.72978048,25.32701522,-99999.0,'11111222,11111222,99999999' 
TABS,ioos:station:wmo:42050:1,2011-07-03T06:00:00Z,28.8425,-94.2433,2.0,44.2480346,21.0099524,-99999.0,'11111222,11111222,99999999' 
TABS,ioos:station:wmo:42050:1,2011-07-03T06:30:00Z,28.8425,-94.2433,2.0,53.31115334,22.7961137,-99999.0,'11111222,11111222,99999999' 
TABS,ioos:station:wmo:42050:1,2011-07-03T07:00:00Z,28.8425,-94.2433,2.0,55.35749748,26.19378934,-99999.0,'11111222,11111222,99999999' 
TABS,ioos:station:wmo:42050:1,2011-07-03T07:30:00Z,28.8425,-94.2433,2.0,68.35592789,27.05776968,-99999.0,'11111222,11111222,99999999' 
TABS,ioos:station:wmo:42050:1,2011-07-03T08:00:00Z,28.8425,-94.2433,2.0,70.51620663,29.02192275,-99999.0,'11111222,11111222,99999999' 
TABS,ioos:station:wmo:42050:1,2011-07-03T08:30:00Z,28.8425,-94.2433,2.0,74.57339134,33.98439642,-99999.0,'11111222,11111222,99999999' 
TABS,ioos:station:wmo:42050:1,2011-07-03T09:00:00Z,28.8425,-94.2433,2.0,78.32318418,35.52520514,-99999.0,'11111222,11111222,99999999' 
TABS,ioos:station:wmo:42050:1,2011-07-03T09:30:00Z,28.8425,-94.2433,2.0,78.82238782,36.5228052,-99999.0,'11111222,11111222,99999999' 
TABS,ioos:station:wmo:42050:1,2011-07-03T10:00:00Z,28.8425,-94.2433,2.0,83.96531812,38.52348115,-99999.0,'11111222,11111222,99999999' 
TABS,ioos:station:wmo:42050:1,2011-07-03T10:30:00Z,28.8425,-94.2433,2.0,83.23975903,35.84924546,-99999.0,'11111222,11111222,99999999' 
TABS,ioos:station:wmo:42050:1,2011-07-03T11:00:00Z,28.8425,-94.2433,2.0,84.65207598,36.15739067,-99999.0,'11111222,11111222,99999999' 
TABS,ioos:station:wmo:42050:1,2011-07-03T11:30:00Z,28.8425,-94.2433,2.0,89.06108124,34.78467047,-99999.0,'11111222,11111222,99999999' 
TABS,ioos:station:wmo:42050:1,2011-07-03T12:00:00Z,28.8425,-94.2433,2.0,89.73581446,34.70036887,-99999.0,'11111222,11111222,99999999' 
TABS,ioos:station:wmo:42050:1,2011-07-03T12:30:00Z,28.8425,-94.2433,2.0,94.78845535,36.41710724,-99999.0,'11111222,11111222,99999999' 
TABS,ioos:station:wmo:42050:1,2011-07-03T13:00:00Z,28.8425,-94.2433,2.0,98.29252134,35.91551197,-99999.0,'11111222,11111222,99999999' 
TABS,ioos:station:wmo:42050:1,2011-07-03T13:30:00Z,28.8425,-94.2433,2.0,98.34148828,34.87898651,-99999.0,'11111222,11111222,99999999' 
TABS,ioos:station:wmo:42050:1,2011-07-03T14:00:00Z,28.8425,-94.2433,2.0,125.9176487,29.96813808,-99999.0,'11111222,11111222,99999999' 
TABS,ioos:station:wmo:42050:1,2011-07-03T14:30:00Z,28.8425,-94.2433,2.0,132.5375222,29.78963075,-99999.0,'11111222,11111222,99999999' 
TABS,ioos:station:wmo:42050:1,2011-07-03T15:00:00Z,28.8425,-94.2433,2.0,134.9430257,28.49641732,-99999.0,'11111222,11111222,99999999' 
TABS,ioos:station:wmo:42050:1,2011-07-03T15:30:00Z,28.8425,-94.2433,2.0,134.2154933,26.34219619,-99999.0,'11111222,11111222,99999999' 
TABS,ioos:station:wmo:42050:1,2011-07-03T16:00:00Z,28.8425,-94.2433,2.0,134.2006307,23.82474554,-99999.0,'11111222,11111222,99999999' 
TABS,ioos:station:wmo:42050:1,2011-07-03T16:30:00Z,28.8425,-94.2433,2.0,128.5389579,17.78354577,-99999.0,'11111222,11111222,99999999' 
TABS,ioos:station:wmo:42050:1,2011-07-03T17:00:00Z,28.8425,-94.2433,2.0,118.5456054,15.52758835,-99999.0,'11111222,11111222,99999999' 
TABS,ioos:station:wmo:42050:1,2011-07-03T17:30:00Z,28.8425,-94.2433,2.0,112.5059798,15.1000298,-99999.0,'11111222,11111222,99999999' 
TABS,ioos:station:wmo:42050:1,2011-07-03T18:00:00Z,28.8425,-94.2433,2.0,83.62469393,10.80683117,-99999.0,'11111222,11111222,99999999' 
TABS,ioos:station:wmo:42050:1,2011-07-03T18:30:00Z,28.8425,-94.2433,2.0,80.53769992,11.00980018,-99999.0,'11111222,11111222,99999999' 
TABS,ioos:station:wmo:42050:1,2011-07-03T19:00:00Z,28.8425,-94.2433,2.0,66.86696316,9.188830176,-99999.0,'11133222,11111222,99999999' 
TABS,ioos:station:wmo:42050:1,2011-07-03T19:30:00Z,28.8425,-94.2433,2.0,56.4166502,10.43115526,-99999.0,'11111222,11111222,99999999' 
TABS,ioos:station:wmo:42050:1,2011-07-03T20:00:00Z,28.8425,-94.2433,2.0,51.49755093,10.81038852,-99999.0,'11111222,11111222,99999999' 
TABS,ioos:station:wmo:42050:1,2011-07-03T20:30:00Z,28.8425,-94.2433,2.0,48.54776294,12.34145048,-99999.0,'11111222,11111222,99999999' 
TABS,ioos:station:wmo:42050:1,2011-07-03T21:00:00Z,28.8425,-94.2433,2.0,48.66825399,14.0365416,-99999.0,'11111222,11111222,99999999' 
TABS,ioos:station:wmo:42050:1,2011-07-03T21:30:00Z,28.8425,-94.2433,2.0,52.52648385,11.76865328,-99999.0,'11111222,11111222,99999999' 
TABS,ioos:station:wmo:42050:1,2011-07-03T22:00:00Z,28.8425,-94.2433,2.0,38.01578205,10.0019998,-99999.0,'11111222,11111222,99999999' 
TABS,ioos:station:wmo:42050:1,2011-07-03T22:30:00Z,28.8425,-94.2433,2.0,57.01768553,11.00331768,-99999.0,'11111222,11111222,99999999' 
TABS,ioos:station:wmo:42050:1,2011-07-03T23:00:00Z,28.8425,-94.2433,2.0,53.98955881,10.00112494,-99999.0,'11111222,11111222,99999999' 
TABS,ioos:station:wmo:42050:1,2011-07-03T23:30:00Z,28.8425,-94.2433,2.0,66.31940627,12.7975779,-99999.0,'11111222,11111222,99999999' 
TABS,ioos:station:wmo:42050:1,2011-07-04T00:00:00Z,28.8425,-94.2433,2.0,55.47750432,12.59857135,-99999.0,'11111222,11111222,99999999' 
TABS,ioos:station:wmo:42050:1,2011-07-04T00:30:00Z,28.8425,-94.2433,2.0,55.45567475,15.624868,-99999.0,'11111222,11111222,99999999' 
TABS,ioos:station:wmo:42050:1,2011-07-04T01:00:00Z,28.8425,-94.2433,2.0,51.50214727,18.79558725,-99999.0,'11111222,11111222,99999999' 
TABS,ioos:station:wmo:42050:1,2011-07-04T01:30:00Z,28.8425,-94.2433,2.0,51.60492528,18.25846927,-99999.0,'11111222,11111222,99999999' 
TABS,ioos:station:wmo:42050:1,2011-07-04T02:00:00Z,28.8425,-94.2433,2.0,47.73519671,21.93115136,-99999.0,'11111222,11111222,99999999' 
TABS,ioos:station:wmo:42050:1,2011-07-04T02:30:00Z,28.8425,-94.2433,2.0,62.86328293,23.30546073,-99999.0,'11111222,11111222,99999999' 
TABS,ioos:station:wmo:42050:1,2011-07-04T03:00:00Z,28.8425,-94.2433,2.0,68.55720415,31.15657395,-99999.0,'11111222,11111222,99999999' 
TABS,ioos:station:wmo:42050:1,2011-07-04T03:30:00Z,28.8425,-94.2433,2.0,64.31826557,31.91248188,-99999.0,'11111222,11111222,99999999' 
TABS,ioos:station:wmo:42050:1,2011-07-04T04:00:00Z,28.8425,-94.2433,2.0,58.31939577,33.85475594,-99999.0,'11111222,11111222,99999999' 
TABS,ioos:station:wmo:42050:1,2011-07-04T04:30:00Z,28.8425,-94.2433,2.0,59.29988524,33.18018234,-99999.0,'11111222,11111222,99999999' 
TABS,ioos:station:wmo:42050:1,2011-07-04T05:00:00Z,28.8425,-94.2433,2.0,64.73407701,34.32352109,-99999.0,'11111222,11111222,99999999' 
TABS,ioos:station:wmo:42050:1,2011-07-04T05:30:00Z,28.8425,-94.2433,2.0,72.86250906,25.41857982,-99999.0,'11111222,11111222,99999999' 
TABS,ioos:station:wmo:42050:1,2011-07-04T06:00:00Z,28.8425,-94.2433,2.0,68.06157083,31.82455813,-99999.0,'11111222,11111222,99999999' 
TABS,ioos:station:wmo:42050:1,2011-07-04T06:30:00Z,28.8425,-94.2433,2.0,68.10964356,33.47348204,-99999.0,'11111222,11111222,99999999' 
TABS,ioos:station:wmo:42050:1,2011-07-04T07:00:00Z,28.8425,-94.2433,2.0,70.98080908,32.25058449,-99999.0,'11111222,11111222,99999999' 
TABS,ioos:station:wmo:42050:1,2011-07-04T07:30:00Z,28.8425,-94.2433,2.0,71.88274999,32.51187629,-99999.0,'11111222,11111222,99999999' 
TABS,ioos:station:wmo:42050:1,2011-07-04T08:00:00Z,28.8425,-94.2433,2.0,70.40280046,31.33513204,-99999.0,'11111222,11111222,99999999' 
TABS,ioos:station:wmo:42050:1,2011-07-04T08:30:00Z,28.8425,-94.2433,2.0,70.68402699,33.31537183,-99999.0,'11111222,11111222,99999999' 
TABS,ioos:station:wmo:42050:1,2011-07-04T09:00:00Z,28.8425,-94.2433,2.0,69.42091416,31.94872454,-99999.0,'11111222,11111222,99999999' 
TABS,ioos:station:wmo:42050:1,2011-07-04T09:30:00Z,28.8425,-94.2433,2.0,74.74801286,32.46342557,-99999.0,'11111222,11111222,99999999' 
TABS,ioos:station:wmo:42050:1,2011-07-04T10:00:00Z,28.8425,-94.2433,2.0,76.23958349,33.75892475,-99999.0,'11111222,11111222,99999999' 
TABS,ioos:station:wmo:42050:1,2011-07-04T10:30:00Z,28.8425,-94.2433,2.0,75.61684005,31.64177776,-99999.0,'11111222,11111222,99999999' 
TABS,ioos:station:wmo:42050:1,2011-07-04T11:00:00Z,28.8425,-94.2433,2.0,79.9975761,29.99592806,-99999.0,'11111222,11111222,99999999' 
TABS,ioos:station:wmo:42050:1,2011-07-04T11:30:00Z,28.8425,-94.2433,2.0,84.00788015,31.99481208,-99999.0,'11111222,11111222,99999999' 
TABS,ioos:station:wmo:42050:1,2011-07-04T12:00:00Z,28.8425,-94.2433,2.0,90.0,30.0,-99999.0,'11111222,11111222,99999999' 
TABS,ioos:station:wmo:42050:1,2011-07-04T12:30:00Z,28.8425,-94.2433,2.0,90.0,30.0,-99999.0,'11111222,11111222,99999999' 
TABS,ioos:station:wmo:42050:1,2011-07-04T13:00:00Z,28.8425,-94.2433,2.0,98.99444994,29.99888331,-99999.0,'11111222,11111222,99999999' 
TABS,ioos:station:wmo:42050:1,2011-07-04T13:30:00Z,28.8425,-94.2433,2.0,98.00405353,27.00305909,-99999.0,'11111222,11111222,99999999' 
TABS,ioos:station:wmo:42050:1,2011-07-04T14:00:00Z,28.8425,-94.2433,2.0,98.9913589,27.00180179,-99999.0,'11111222,11111222,99999999' 
TABS,ioos:station:wmo:42050:1,2011-07-04T14:30:00Z,28.8425,-94.2433,2.0,95.00886547,25.99928653,-99999.0,'11111222,11111222,99999999' 
TABS,ioos:station:wmo:42050:1,2011-07-04T15:00:00Z,28.8425,-94.2433,2.0,93.94356325,24.42783863,-99999.0,'11111222,11111222,99999999' 
TABS,ioos:station:wmo:42050:1,2011-07-04T15:30:00Z,28.8425,-94.2433,2.0,96.83964256,21.91596906,-99999.0,'11111222,11111222,99999999' 
TABS,ioos:station:wmo:42050:1,2011-07-04T16:00:00Z,28.8425,-94.2433,2.0,90.0,17.0,-99999.0,'11111222,11111222,99999999' 